Location: Banff
(51.1670°N, 115.5670°W)
Time: 22:22:37
(UTC-06:00)

Amateur Radio Satellites - All Passes

Search period start: 01 September 2014 21:52
Search period end: 02 September 2014 21:52
Location: Banff, 51.1670°N, 115.5670°W

Satellite Date Start Highest point End Downlink Frequencies (MHz)
Time Altitude Azimuth
Oscar 11 01 Sep 21:53:19 21:57:25 42° 68° (ENE) 22:01:33 145.825 FM, Beacon 2401.500 USB
Sapphire 01 Sep 22:16:46 22:19:49 15° 360° (N) 22:22:52 437.095 MHz 1200 baud AX-25 AFSK
Saudisat 1A 01 Sep 22:23:56 22:26:33 16° 112° (ESE) 22:29:10 436.775 MHz
FUNcube-1 01 Sep 22:25:25 22:29:19 37° 67° (ENE) 22:33:19 145.950 - 145.970 MHz USB
HO-68 01 Sep 22:28:21 22:35:11 48° 261° (W) 22:42:05 435.675 MHz FM
MaSat-1 01 Sep 22:39:31 22:44:19 80° 57° (ENE) 22:48:29 437.345 MHz
PCSat 01 Sep 22:46:36 22:49:49 16° 8° (N) 22:53:02 145.825 MHz
KITSAT 1 01 Sep 23:21:48 23:28:30 30° 108° (ESE) 23:35:12 435.175 FM
UKube-1 01 Sep 23:27:18 23:30:17 18° 269° (W) 23:33:16 145.840 MHz, 145.915 MHz
Oscar 11 01 Sep 23:30:10 23:33:47 25° 267° (W) 23:37:25 145.825 FM, Beacon 2401.500 USB
Sapphire 02 Sep 00:01:04 00:05:18 22° 26° (NNE) 00:09:31 437.095 MHz 1200 baud AX-25 AFSK
Saudisat 1A 02 Sep 00:01:06 00:05:32 89° 311° (NW) 00:09:59 436.775 MHz
FUNcube-1 02 Sep 00:02:11 00:05:49 28° 266° (W) 00:09:33 145.950 - 145.970 MHz USB
MaSat-1 02 Sep 00:17:55 00:20:32 15° 259° (W) 00:22:59 437.345 MHz
AO-40 02 Sep 00:18:11 02:59:28 20° 133° (SE) 04:16:48 Beacon 2401.320
PCSat 02 Sep 00:30:17 00:35:03 29° 34° (NNE) 00:39:46 145.825 MHz
Oscar 10/S400 02 Sep 01:03:07 01:44:03 45° 196° (SSW) 08:18:34 145.825 - 145.975 CW/USB, Beacon 145.810 USB
KITSAT 1 02 Sep 01:15:01 01:23:08 83° 310° (NW) 01:31:18 435.175 FM
Saudisat 1A 02 Sep 01:42:04 01:45:42 24° 333° (NNW) 01:49:21 436.775 MHz
Sapphire 02 Sep 01:44:18 01:49:44 67° 49° (NE) 01:55:08 437.095 MHz 1200 baud AX-25 AFSK
PCSat 02 Sep 02:13:35 02:19:02 78° 236° (SW) 02:24:27 145.825 MHz
Oscar 19 02 Sep 02:18:08 02:22:00 21° 90° (E) 02:25:51 437.125 CW, 437.150 USB
AO-Echo 02 Sep 02:28:00 02:29:24 11° 85° (E) 02:30:48 ?
Oscar 16 02 Sep 02:52:51 02:57:45 39° 97° (E) 03:02:36 437.025 USB, Beacon 2401.1428
ITAMSAT 1 02 Sep 02:56:06 02:59:54 20° 90° (E) 03:03:41 435.822 SSB
Uribyol 2 02 Sep 03:05:08 03:09:24 25° 92° (E) 03:13:38 436.500 FM
SO-50 02 Sep 03:06:13 03:06:55 10° 107° (ESE) 03:07:37 436.795 FM
KITSAT 1 02 Sep 03:12:21 03:19:42 36° 336° (NNW) 03:27:04 435.175 FM
TMSAT-1 02 Sep 03:19:26 03:21:29 12° 84° (E) 03:23:33 436.925 FM
JAS-1B 02 Sep 03:21:47 03:27:53 33° 91° (E) 03:33:15 435.800 - 435.900 CW/SSB
Saudisat 1A 02 Sep 03:24:16 03:26:46 15° 357° (N) 03:29:15 436.775 MHz
AO-27 02 Sep 03:25:15 03:29:59 34° 96° (E) 03:34:42 436.795 MHz FM
Sapphire 02 Sep 03:28:19 03:32:46 26° 249° (WSW) 03:37:12 437.095 MHz 1200 baud AX-25 AFSK
Oscar 19 02 Sep 03:56:40 04:01:52 69° 289° (WNW) 04:07:01 437.125 CW, 437.150 USB
PCSat 02 Sep 03:58:36 04:01:35 15° 256° (WSW) 04:04:35 145.825 MHz
OPAL 02 Sep 04:00:21 04:04:50 32° 59° (ENE) 04:09:23 ?
AO-Echo 02 Sep 04:04:17 04:09:01 78° 104° (ESE) 04:13:44 ?
Gurwin Techsat 1B 02 Sep 04:07:19 04:12:18 39° 97° (E) 04:17:14 435.225 FM
Oscar 16 02 Sep 04:32:20 04:37:05 37° 296° (WNW) 04:41:49 437.025 USB, Beacon 2401.1428
ITAMSAT 1 02 Sep 04:34:45 04:39:56 70° 289° (WNW) 04:45:05 435.822 SSB
SO-50 02 Sep 04:42:05 04:46:32 64° 127° (SE) 04:51:08 436.795 FM
Uribyol 2 02 Sep 04:44:08 04:49:13 57° 292° (WNW) 04:54:18 436.500 FM
UOSAT-12 02 Sep 04:52:11 04:52:31 10° 107° (ESE) 04:52:52 437.025 FM, 437.400 FM
TMSAT-1 02 Sep 04:57:03 05:02:23 73° 103° (ESE) 05:07:40 436.925 FM
Uosat F 02 Sep 04:57:51 05:01:08 17° 89° (E) 05:04:25 435.120 FM
Saudisat 1A 02 Sep 05:04:36 05:07:56 20° 22° (NNE) 05:11:15 436.775 MHz
AO-27 02 Sep 05:04:44 05:09:36 41° 295° (WNW) 05:14:27 436.795 MHz FM
KITSAT 1 02 Sep 05:10:47 05:17:35 28° 5° (N) 05:24:23 435.175 FM
JAS-1B 02 Sep 05:12:12 05:18:59 52° 297° (WNW) 05:24:48 435.800 - 435.900 CW/SSB
AO-7 02 Sep 05:25:23 05:32:56 37° 96° (E) 05:40:26 29.400 - 29.500 MHz
Oscar 19 02 Sep 05:37:37 05:40:20 14° 309° (NW) 05:43:02 437.125 CW, 437.150 USB
OPAL 02 Sep 05:38:38 05:43:33 48° 258° (WSW) 05:48:34 ?
AO-Echo 02 Sep 05:44:10 05:47:16 18° 304° (NW) 05:50:23 ?
Gurwin Techsat 1B 02 Sep 05:47:23 05:52:17 38° 296° (WNW) 05:57:09 435.225 FM
STRAND 1 02 Sep 05:49:52 05:53:08 17° 54° (NE) 05:56:23 ?
JAS-2 02 Sep 06:14:49 06:16:52 12° 85° (E) 06:18:58 435.800 - 435.900 CW/SSB, 435.910 FM
ITAMSAT 1 02 Sep 06:15:49 06:18:34 15° 309° (NW) 06:21:19 435.822 SSB
SO-50 02 Sep 06:23:24 06:27:28 31° 329° (NNW) 06:31:38 436.795 FM
Uribyol 2 02 Sep 06:25:42 06:27:41 12° 312° (NW) 06:29:39 436.500 FM
UOSAT-12 02 Sep 06:27:08 06:31:43 61° 126° (SE) 06:36:23 437.025 FM, 437.400 FM
Uosat F 02 Sep 06:35:30 06:40:32 78° 288° (WNW) 06:45:32 435.120 FM
TMSAT-1 02 Sep 06:37:48 06:41:49 23° 303° (WNW) 06:45:50 436.925 FM
Saudisat 1A 02 Sep 06:43:55 06:48:20 62° 44° (NE) 06:52:43 436.775 MHz
JAS-1B 02 Sep 07:04:20 07:07:51 15° 322° (NW) 07:11:09 435.800 - 435.900 CW/SSB
KITSAT 1 02 Sep 07:07:26 07:15:10 45° 33° (NNE) 07:22:51 435.175 FM
AO-7 02 Sep 07:18:03 07:26:14 65° 298° (WNW) 07:34:23 29.400 - 29.500 MHz
STRAND 1 02 Sep 07:26:32 07:31:39 88° 74° (ENE) 07:36:47 ?
Hamsat 02 Sep 07:33:35 07:37:53 56° 100° (E) 07:42:08 145.90 MHz
RS-15 02 Sep 07:36:07 07:45:35 35° 108° (ESE) 07:54:57 29.354 - 29.394 USB, Beacon 29.352 USB
JAS-2 02 Sep 07:57:38 08:02:53 76° 104° (ESE) 08:08:30 435.800 - 435.900 CW/SSB, 435.910 FM
SO-50 02 Sep 08:06:27 08:09:26 17° 353° (N) 08:12:26 436.795 FM
UOSAT-12 02 Sep 08:07:56 08:12:11 33° 328° (NNW) 08:16:30 437.025 FM, 437.400 FM
SO-67 02 Sep 08:10:17 08:12:58 20° 93° (E) 08:15:37 435.3500 MHz FM
Uosat F 02 Sep 08:15:44 08:18:34 15° 308° (NW) 08:21:23 435.120 FM
Saudisat 1A 02 Sep 08:24:05 08:27:35 23° 244° (WSW) 08:31:04 436.775 MHz
KITSAT 1 02 Sep 09:03:04 09:11:06 70° 238° (WSW) 09:19:05 435.175 FM
STRAND 1 02 Sep 09:08:35 09:11:34 15° 273° (W) 09:14:33 ?
Hamsat 02 Sep 09:10:14 09:13:31 21° 299° (WNW) 09:16:45 145.90 MHz
AO-7 02 Sep 09:11:43 09:17:38 22° 321° (NW) 09:23:32 29.400 - 29.500 MHz
SO-67 02 Sep 09:42:57 09:46:07 33° 291° (WNW) 09:49:15 435.3500 MHz FM
JAS-2 02 Sep 09:43:48 09:47:34 21° 304° (WNW) 09:51:27 435.800 - 435.900 CW/SSB, 435.910 FM
RS-15 02 Sep 09:45:50 09:56:53 83° 313° (NW) 10:07:55 29.354 - 29.394 USB, Beacon 29.352 USB
SO-50 02 Sep 09:48:13 09:51:40 20° 18° (NNE) 09:55:10 436.795 FM
HO-68 02 Sep 09:50:13 09:56:12 28° 92° (E) 10:02:08 435.675 MHz FM
UOSAT-12 02 Sep 09:50:35 09:53:42 17° 351° (N) 09:56:49 437.025 FM, 437.400 FM
ISS 02 Sep 10:56:54 10:59:34 22° 145° (SE) 11:02:15 145.800 FM
KITSAT 1 02 Sep 11:00:06 11:05:06 18° 259° (W) 11:10:04 435.175 FM
AO-7 02 Sep 11:06:44 11:07:23 10° 348° (NNW) 11:08:01 29.400 - 29.500 MHz
UKube-1 02 Sep 11:08:35 11:12:52 54° 101° (E) 11:17:07 145.840 MHz, 145.915 MHz
Oscar 11 02 Sep 11:11:42 11:15:53 42° 98° (E) 11:20:02 145.825 FM, Beacon 2401.500 USB
SO-50 02 Sep 11:28:38 11:33:16 50° 40° (NE) 11:37:58 436.795 FM
UOSAT-12 02 Sep 11:32:07 11:35:32 19° 16° (NNE) 11:38:57 437.025 FM, 437.400 FM
HO-68 02 Sep 11:37:25 11:44:35 74° 292° (WNW) 11:51:42 435.675 MHz FM
FUNcube-1 02 Sep 11:45:08 11:49:26 40° 97° (E) 11:53:46 145.950 - 145.970 MHz USB
RS-15 02 Sep 12:00:30 12:10:50 44° 343° (NNW) 12:21:18 29.354 - 29.394 USB, Beacon 29.352 USB
Oscar 19 02 Sep 12:05:33 12:06:32 11° 46° (NE) 12:07:30 437.125 CW, 437.150 USB
JAS-1B 02 Sep 12:23:36 12:29:12 19° 43° (NE) 12:34:20 435.800 - 435.900 CW/SSB
ISS 02 Sep 12:32:38 12:35:57 74° 164° (SSE) 12:39:17 145.800 FM
MaSat-1 02 Sep 12:34:12 12:36:52 15° 100° (E) 12:39:35 437.345 MHz
Oscar 16 02 Sep 12:37:55 12:41:24 19° 54° (NE) 12:44:54 437.025 USB, Beacon 2401.1428
ITAMSAT 1 02 Sep 12:44:19 12:45:30 11° 46° (NE) 12:46:40 435.822 SSB
UKube-1 02 Sep 12:45:26 12:48:46 22° 300° (WNW) 12:52:05 145.840 MHz, 145.915 MHz
Oscar 11 02 Sep 12:48:14 12:51:55 27° 297° (WNW) 12:55:35 145.825 FM, Beacon 2401.500 USB
Uribyol 2 02 Sep 12:52:14 12:54:30 13° 49° (NE) 12:56:46 436.500 FM
AO-7 02 Sep 12:54:38 12:56:28 11° 16° (NNE) 12:58:17 29.400 - 29.500 MHz
SO-50 02 Sep 13:09:26 13:13:45 34° 240° (WSW) 13:18:06 436.795 FM
AO-27 02 Sep 13:11:37 13:14:53 17° 53° (NE) 13:18:10 436.795 MHz FM
UOSAT-12 02 Sep 13:12:11 13:16:48 46° 39° (NE) 13:21:21 437.025 FM, 437.400 FM
FUNcube-1 02 Sep 13:21:47 13:25:43 30° 296° (WNW) 13:29:41 145.950 - 145.970 MHz USB
HO-68 02 Sep 13:26:08 13:31:15 22° 314° (NW) 13:36:22 435.675 MHz FM
Oscar 19 02 Sep 13:39:45 13:44:43 48° 67° (ENE) 13:49:43 437.125 CW, 437.150 USB
AO-Echo 02 Sep 13:44:39 13:48:48 28° 62° (ENE) 13:52:53 ?
Gurwin Techsat 1B 02 Sep 13:55:55 13:59:36 20° 55° (NE) 14:03:17 435.225 FM
MaSat-1 02 Sep 14:08:01 14:13:04 78° 120° (ESE) 14:18:14 437.345 MHz
JAS-1B 02 Sep 14:09:11 14:18:19 56° 64° (ENE) 14:26:15 435.800 - 435.900 CW/SSB
ISS 02 Sep 14:09:23 14:12:44 81° 4° (N) 14:16:04 145.800 FM
Oscar 16 02 Sep 14:14:55 14:20:06 88° 255° (WSW) 14:25:21 437.025 USB, Beacon 2401.1428
RS-15 02 Sep 14:15:50 14:26:12 44° 17° (NNE) 14:36:47 29.354 - 29.394 USB, Beacon 29.352 USB
ITAMSAT 1 02 Sep 14:18:54 14:23:52 50° 67° (ENE) 14:28:52 435.822 SSB
Uribyol 2 02 Sep 14:27:57 14:33:01 62° 69° (ENE) 14:38:08 436.500 FM
AO-7 02 Sep 14:40:02 14:46:23 25° 42° (NE) 14:52:43 29.400 - 29.500 MHz
TMSAT-1 02 Sep 14:44:12 14:48:50 32° 62° (ENE) 14:53:30 436.925 FM
AO-27 02 Sep 14:48:31 14:53:42 85° 73° (ENE) 14:58:55 436.795 MHz FM
UOSAT-12 02 Sep 14:52:33 14:56:54 37° 240° (WSW) 15:01:12 437.025 FM, 437.400 FM
Oscar 19 02 Sep 15:19:48 15:24:17 29° 266° (W) 15:28:49 437.125 CW, 437.150 USB
AO-Echo 02 Sep 15:22:38 15:27:25 48° 261° (W) 15:32:06 ?
Gurwin Techsat 1B 02 Sep 15:33:37 15:38:56 86° 255° (WSW) 15:44:18 435.225 FM
ISS 02 Sep 15:46:09 15:49:24 49° 204° (SSW) 15:52:38 145.800 FM
MaSat-1 02 Sep 15:46:19 15:50:38 26° 320° (NW) 15:54:56 437.345 MHz
Oscar 16 02 Sep 15:57:20 16:00:14 15° 274° (W) 16:03:10 437.025 USB, Beacon 2401.1428
ITAMSAT 1 02 Sep 15:59:12 16:03:37 28° 266° (W) 16:08:04 435.822 SSB
JAS-1B 02 Sep 15:59:50 16:08:57 48° 263° (W) 16:17:01 435.800 - 435.900 CW/SSB
Uribyol 2 02 Sep 16:08:53 16:12:55 23° 269° (W) 16:16:59 436.500 FM
Uosat F 02 Sep 16:15:41 16:20:21 41° 65° (ENE) 16:25:03 435.120 FM
TMSAT-1 02 Sep 16:23:33 16:28:38 47° 261° (W) 16:33:45 436.925 FM
RS-15 02 Sep 16:29:08 16:40:13 82° 47° (NE) 16:51:40 29.354 - 29.394 USB, Beacon 29.352 USB
AO-7 02 Sep 16:29:42 16:38:00 75° 65° (ENE) 16:46:19 29.400 - 29.500 MHz
AO-27 02 Sep 16:30:43 16:33:55 16° 272° (W) 16:37:08 436.795 MHz FM
Sapphire 02 Sep 16:32:58 16:36:42 19° 107° (ESE) 16:40:28 437.095 MHz 1200 baud AX-25 AFSK
JAS-2 02 Sep 16:34:37 16:36:42 12° 49° (NE) 16:38:45 435.800 - 435.900 CW/SSB, 435.910 FM
Hamsat 02 Sep 16:58:58 17:00:44 12° 54° (NE) 17:02:30 145.90 MHz
PCSat 02 Sep 17:00:45 17:05:31 33° 113° (ESE) 17:10:20 145.825 MHz
Gurwin Techsat 1B 02 Sep 17:16:46 17:19:43 15° 274° (W) 17:22:41 435.225 FM
ISS 02 Sep 17:24:00 17:25:33 13° 222° (SW) 17:27:05 145.800 FM
MaSat-1 02 Sep 17:27:51 17:29:21 11° 343° (NNW) 17:30:51 437.345 MHz
OPAL 02 Sep 17:43:19 17:47:54 30° 97° (E) 17:52:26 ?
Uosat F 02 Sep 17:54:45 17:59:15 33° 264° (W) 18:03:46 435.120 FM
JAS-1B 02 Sep 17:59:19 18:01:24 11° 284° (WNW) 18:03:27 435.800 - 435.900 CW/SSB
Sapphire 02 Sep 18:14:03 18:19:28 85° 307° (NW) 18:24:57 437.095 MHz 1200 baud AX-25 AFSK
JAS-2 02 Sep 18:15:13 18:20:54 59° 69° (ENE) 18:26:07 435.800 - 435.900 CW/SSB, 435.910 FM
AO-7 02 Sep 18:24:22 18:31:32 31° 267° (W) 18:38:45 29.400 - 29.500 MHz
Hamsat 02 Sep 18:31:36 18:35:56 76° 74° (ENE) 18:40:20 145.90 MHz
RS-15 02 Sep 18:42:00 18:51:38 37° 252° (WSW) 19:01:35 29.354 - 29.394 USB, Beacon 29.352 USB
HO-68 02 Sep 18:42:30 18:44:56 12° 33° (NNE) 18:47:21 435.675 MHz FM
PCSat 02 Sep 18:43:26 18:48:45 55° 314° (NW) 18:54:06 145.825 MHz
SO-67 02 Sep 18:48:45 18:51:06 17° 63° (ENE) 18:53:27 435.3500 MHz FM
OPAL 02 Sep 19:21:57 19:26:59 49° 296° (WNW) 19:32:00 ?
STRAND 1 02 Sep 19:32:39 19:36:25 20° 90° (E) 19:40:10 ?
Sapphire 02 Sep 19:59:10 20:03:40 26° 330° (NNW) 20:08:12 437.095 MHz 1200 baud AX-25 AFSK
JAS-2 02 Sep 20:01:42 20:06:23 25° 267° (W) 20:10:47 435.800 - 435.900 CW/SSB, 435.910 FM
Hamsat 02 Sep 20:10:02 20:12:27 15° 273° (W) 20:14:54 145.90 MHz
SO-67 02 Sep 20:20:33 20:23:52 43° 261° (W) 20:27:14 435.3500 MHz FM
HO-68 02 Sep 20:24:19 20:30:43 38° 56° (ENE) 20:37:09 435.675 MHz FM
PCSat 02 Sep 20:29:23 20:33:22 20° 338° (NNW) 20:37:21 145.825 MHz
UKube-1 02 Sep 20:35:19 20:37:41 15° 55° (NE) 20:40:03 145.840 MHz, 145.915 MHz
Oscar 11 02 Sep 20:39:36 20:40:29 11° 52° (NE) 20:41:22 145.825 FM, Beacon 2401.500 USB
MaSat-1 02 Sep 20:44:16 20:47:41 19° 32° (NNE) 20:50:53 437.345 MHz
OPAL 02 Sep 21:03:03 21:04:45 12° 316° (NW) 21:06:27 ?
STRAND 1 02 Sep 21:11:02 21:16:07 68° 289° (WNW) 21:21:11 ?
Sapphire 02 Sep 21:45:55 21:49:01 15° 356° (N) 21:52:07 437.095 MHz 1200 baud AX-25 AFSK
